Regional Weather Roundup
Issued by NWS

Home | Current Version | Previous Version | Text Only | Print | Product List | Glossary On
Versions: 1 2 3 4 5 6 7 8 9 10 11 12 13 14 15 16 17 18 19 20 21 22 23 24 25 26 27 28 29 30 31 32 33 34 35 36 37 38 39 40 41 42 43 44 45 46 47 48 49 50
000
ASUS43 KFSD 220410
RWRSD

WEATHER ROUNDUP FOR SOUTH DAKOTA
NATIONAL WEATHER SERVICE SIOUX FALLS SD
1100 PM CDT THU AUG 21 2014

NOTE: "FAIR" INDICATES FEW OR NO CLOUDS BELOW 12,000 FEET WITH NO
SIGNIFICANT WEATHER AND/OR OBSTRUCTIONS TO VISIBILITY.


SDZ001>005-009-010-012>017-220500-
NORTHWEST AND NORTH CENTRAL SOUTH DAKOTA

CITY           SKY/WX    TMP DP  RH WIND       PRES   REMARKS
BUFFALO          N/A     63  61  93 N15       29.95R
FAITH            N/A     67  63  87 NE10      29.94F
MOBRIDGE       PTCLDY    70  63  78 NE9       29.91F
$$

SDZ012>016-024>037-041>051-057-063-072>074-220500-
SOUTHWEST AND SOUTH CENTRAL SOUTH DAKOTA

CITY           SKY/WX    TMP DP  RH WIND       PRES   REMARKS
RAPID CTY ARPT PTCLDY    65  60  84 E3        29.99F
PIERRE         CLEAR     68  61  78 E7        29.91R
CUSTER         PTCLDY    59  54  83 N3        30.12R
ELLSWORTH AFB  LGT RAIN  66  61  82 E7        29.97S
PHILIP         PTCLDY    69  55  60 E5        29.91S
PINE RIDGE     PTCLDY    68  57  68 CALM      29.97R
WINNER         FAIR      73  61  65 S6        29.94R
$$

SDZ004>011-016>023-039-040-220500-
NORTHEAST SOUTH DAKOTA

CITY           SKY/WX    TMP DP  RH WIND       PRES   REMARKS
ABERDEEN       PTCLDY    66  64  93 NW5       29.90R
WATERTOWN      CLEAR     70  68  93 CALM      29.91R
SISSETON         N/A     68  68 100 CALM      29.87R
$$

SDZ017-020-022-023-036>040-048>070-220500-
SOUTHEAST SOUTH DAKOTA

CITY           SKY/WX    TMP DP  RH WIND       PRES   REMARKS
SIOUX FALLS    PTCLDY    72  69  90 N6        29.90R
HURON          PTCLDY    72  66  81 NE8       29.90R
CHAMBERLAIN    PTCLDY    72  65  78 E5        29.92R
MITCHELL       PTCLDY    71  66  84 N3        29.91R
YANKTON        PTCLDY    75  70  83 N7        29.89R
$$

ABBREVIATIONS USED IN REMARKS
   TC - TEMPERATURE IN CELSIUS
  WCI - WIND CHILL INDEX
   HX - HEAT INDEX
  VSB - VISIBILITY



USA.gov is the U.S. government's official web portal to all federal, state and local government web resources and services.